Погода в Чардаре

Погода в Чардаре : погода сейчас, прогноз погоды и архив. Всё, что Вы хотите узнать о погоде в Чардаре!

Хотите узнать прогноз погоды в Чардаре? Тогда Вам сюда: Погода в Чардаре

Поиск расширенной информации на нашем сайте:

Другие новости

Новости СМИ2

Главная страница сайта

Новости сайта

03.07.2017

Напоминаем, что на нашем специализированном сайте Метеоцентр.Азия вы можете получить высокодетализированные автоматические прогнозы погоды по пунктам России, СНГ и мира в авиационном формате (включающие направление и скорость ветра, видимость, явления погоды, количество и форму облачности, нижнюю и верхнюю границу облачности).


Погода в Чардаре - сегодня

Время (UTC), дата Ветер
(°,м/с) 
Видим.   Явления Облачность Т
(°С)
Тd
(°С)
f(%) Тe
(°С)
Pmin
(гПа)
dP
(гПа)
Po
(мм)
O2
(г/м3)
Тmin Tmax R s Состояние
почвы
00 17.08.17 350 (С) 20000 м    ясно 
+18.9 +7 46 +19  1009.1  1.1  733  275           
03 17.08.17 360 (С) 20000 м    1/0 средняя 
[Ac lent]
+20.4 +7.1 42 +20  1010  1.1  734  274           
06 17.08.17 340 (С) 20000 м    4/4 600 м 
[Cu med, cong]
+28.7 +8 27 +29  1010.8  1.5  735  267  +18.7         
09 17.08.17 040 (СВ) 20000 м    5/3 600 м верхняя 
[Cu med, cong|Ci fib]
+30.8 +8 24 +31  1010.9  0.3  735  265           
12 17.08.17 040 (СВ) 20000 м    3/3 600 м 
[Cu med, cong]
+31.1 +7.8 23 +31  1011.1  0.2  735  265           
15 17.08.17 020 (С) 20000 м    5/5 600 м кучево-дожд. 
[Cb cap]
+28 +7.7 28 +28  1011.9  0.5  736  268    +31.8       
18 17.08.17 030 (СВ) 20000 м    ясно 
+22.5 +8.6 41 +23  1012.4  736  272    +31.8       
21 17.08.17 070 (В) 20000 м    ясно 
+20.5 +8.5 46 +21  1012.3  -0.4  735  274           
00 18.08.17 140 (ЮВ) 20000 м    ясно 
+20.2 +10.4 53 +22  1012.7  0.5  736  274           
03 18.08.17 050 (СВ) 20000 м    ясно 
+19.5 +10 54 +22  1013.6  0.8  736  275           
06 18.08.17 220 (ЮЗ) 20000 м    ясно 
+26.6 +12.3 41 +31  1013.1  0.2  737  268  +19.2         
09 18.08.17 200 (Ю) 20000 м    3/0 верхняя 
[Ci fib]
+30 +12.6 34 +35  1011.3  -1.4  736  265           
12 18.08.17 080 (В) 20000 м    5/0 верхняя 
[Ci fib]
+32.2 +5.9 19 +32  1009.7  -1.4  734  264           
15 18.08.17 030 (СВ) 20000 м    8/0 средняя, верхняя 
[Ac lent|Ci fib]
+28 +8.8 30 +28  1009.4  -0.7  734  267    +33.4       
18 18.08.17 040 (СВ) 20000 м    3/0 верхняя 
[Ci fib]
+23.6 +8 37 +24  1009.5  -0.3  734  271    +33.4       
21 18.08.17 030 (СВ) 20000 м    ясно 
+19.6 +5.6 40 +20  1009.5  -0.4  733  275           
00 19.08.17 020 (С) 20000 м    3/0 средняя, верхняя 
[Ac trans|Ci fib]
+16.5 +5 46 +16  1010.2  0.4  734  278           
03 19.08.17 360 (С) 20000 м    5/0 средняя, верхняя 
[Ac trans|Ci fib]
+19.4 +5.6 40 +20  1011  734  275           
06 19.08.17 010 (С) 20000 м    5/0 верхняя 
[Ci fib]
+28.8 +4.8 22 +29  1010.1  0.1  735  267  +16.4         
09 19.08.17 190 (Ю) 20000 м    8/0 средняя, верхняя 
[Ac lent|Ci fib]
+30.6 +12.8 34 +36  1009.4  -0.5  734  264           
12 19.08.17 050 (СВ) 20000 м    10/0 средняя, верхняя 
[Ac As|Ci fib]
+32.8 +8.6 22 +33  1009.1  -0.1  734  263           
15 19.08.17 010 (С) 20000 м    10/0 средняя, верхняя 
[Ac As|Ci fib]
+29.4 +8.6 27 +29  1009.4  734  266    +33.5       
18 19.08.17 030 (СВ) 20000 м    4/0 верхняя 
[Ci fib]
+25.6 +5 27 +26  1009.6  -0.2  734  270    +33.5       
21 19.08.17 030 (СВ) 20000 м    ясно 
+22.2 +4.5 31 +22  1009.5  -0.5  734  273           
00 20.08.17 020 (С) 20000 м    ясно 
+20.2 +6.5 41 +20  1010.3  0.6  734  274           
Время (UTC), дата Ветер
(°,м/с) 
Видим.   Явления Облачность Т
(°С)
Тd
(°С)
f(%) Тe
(°С)
Pmin
(гПа)
dP
(гПа)
Po
(мм)
O2
(г/м3)
Тmin Tmax R s Состояние
почвы

Для получения пояснительной информации подведите курсор к названию столбца.

ПОГОДА в Чардаре - архив

Всё, что Вы хотите узнать о погоде в Чардаре - удобно и подробно!

Выберите нужную дату (начиная с 1 января 2015* года) и нажмите кнопку "Найти".
Будут отображены архивные сводки погоды по пункту Чардара, начиная с указанной даты.


Отображать данные в формате CSV (для использования в таблицах Excel)


Внимание! Наш архив погоды предназначен исключительно для личного некоммерческого использования в познавательных целях. Если Вам необходимы официальные справки о состоянии погоды (для производственных, юридических, коммерческих и т.п. целей), обращайтесь в органы Росгидромета.

*Примечание: данная дата относится к архиву по метеостанциям СССР (Россия, СНГ, Балтия).
Архив по метеостанциям Зарубежной Европы и Азии (кроме Китая) хранится 10 дней, по другим регионам земного шара (Китай, Африка, Америка, Австралия, Океания) - 1 день.

Чардара - район местоположения метеостанции


Название, широта, долгота, высота метеостанции:
Чардара 41.4°ш. 68°д. 275 м над ур. моря [Казахстан]

Дополнительная информация

В oтличие oт бoльшинства пoгoдных сайтoв мы публикуем пoдрoбную метеoинфoрмацию в детальнoм прoфессиoнальнoм фoрмате.

Характеристики температуры и влажнoсти вoздуха измеряются на высoте 2 м в тени вдали oт зданий и деревьев.
Скoрoсть ветра измеряется на высoте 10 м (на урoвне рoста челoвека скoрoсть ветра ниже в 1.5-2 раза). Если метеoстанция нахoдится в гoрoде или в лесу, тo скoрoсть ветра занижена на 2-4 м/с пo сравнению с oткрытым местoм. Скoрoсть ветра над акватoриями крупных рек и oзёр, а также на вершинах хoлмoв на 2-5 м/с выше, чем в oбычных услoвиях.
Атмoсфернoе давление в разных тoчках местнoсти мoжет значительнo oтличаться oт давления на метеoстанции, в зависимoсти oт услoвий рельефа (при пoдъёме на 10 м давление пoнижается примернo на 1 мм рт.ст.).